,���q�F����(�R����)A,���q�F����(�R����)B,���q�F���͗e�툳��A,���q�F���͗e�툳��B,RPV�X�^�b�g�{���g���x(TE-2-3-67A2),RPV�t�����W���x(TE-2-3-69A2),RPV�t�����W���Ӊ��x(TE-2-3-69B2),RPV�����m�Y��N4B���x(TE-2-3-69D1),���q�F�i�[�e�툳��,�������S��D�o�����x(TE-2-113D),�������S��F�o�����x(TE-2-113F),�i�[�e��O����C�u����(2-86A)���[�N�I�t�R�������o(TE-2-405A),�i�[�e��󒲋@�߂��C���x(TE-16-114A),�i�[�e��󒲋@�߂��C���x(TE-16-114B),�i�[�e��󒲋@�߂��C���x(TE-16-114C),�i�[�e��󒲋@�߂��C���x(TE-16-114D),�i�[�e��󒲋@�߂��C���x(TE-16-114E),�i�[�e��󒲋@������C���x(TE-16-114F#1),�i�[�e��󒲋@������C���x(TE-16-114G#1),�i�[�e��󒲋@������C���x(TE-16-114H#1),�i�[�e��󒲋@������C���x(TE-16-114J#2),�i�[�e��󒲋@������C���x(TE-16-114K#1),���q�F�x���[�V�[�������x(TE-16-114L#1),���͗}��������,���͗}�������xA(TE-16-700A),���͗}�������xB(TE-16-700B),3���@�g�p�ϔR���v�[�������x,3���@FPC�X�L�}�T�[�W�^���N����,N2�@��������,PCV��N2����,RPV��N2����,�i�[�e��N2����,RPV N2����,PCV�K�X�Ǘ��V�X�e���r�C����,���q�F�i�[�e�퐅�f�Z�xA�n,���q�F�i�[�e�퐅�f�Z�xB�n,���q�F�i�[�e�핵�͋C���ː����j�^(D/W)A,���q�F�i�[�e�핵�͋C���ː����j�^(D/W)B,���q�F�i�[�e�핵�͋C���ː����j�^(S/C)A,���q�F�i�[�e�핵�͋C���ː����j�^(S/C)B,4���@�g�p�ϔR���v�[�������x,4���@FPC�X�L�}�T�[�W�^���N����,"���l"
�P��,mm,mm,MPa,MPa,��,��,��,��,kPa,��,��,��,��,��,��,��,��,��,��,��,��,��,��,kPa(abs�j,��,��,��,m,kPa,Nm3/h,Nm3/h,kPa,MPa,Nm3/h,vol%,vol%,Sv/h,Sv/h,Sv/h,Sv/h,��,�~100mm,""
�ŐV�����̌v��̏��,�󋵐��ڂ��p���m�F��,�󋵐��ڂ��p���m�F��,�󋵐��ڂ��p���m�F��,�󋵐��ڂ��p���m�F��,,,,,,,,,,,,,,,,,,,,,,,,,,,,,,,,,�󋵐��ڂ��p���m�F��,,,�v��s��,,,""
2015/1/1 5:00,-1630 ,-1945 ,DS,DS,23.1 ,18.8 ,21.4 ,18.9 ,0.19 ,18.8 ,21.5 ,13.6 ,21.0 ,21.0 ,21.7 ,20.3 ,20.8 ,19.3 ,21.6 ,21.9 ,20.7 ,15.0 ,19.3 ,179.4 ,19.3 ,19.5 ,20.5 ,3.36 ,480 ,-,16.71 ,-,0.43 ,20.6 ,0.07 ,0.06 ,1.40 ,0.84 ,0.11 ,,8.1 ,31.30 ,""
2015/1/1 11:00,-1656 ,-1968 ,DS,DS,23.1 ,18.8 ,21.4 ,18.9 ,0.20 ,18.7 ,21.5 ,13.5 ,20.9 ,20.9 ,21.6 ,20.3 ,20.8 ,19.2 ,21.5 ,21.8 ,20.7 ,14.9 ,19.2 ,179.6 ,19.3 ,19.5 ,20.4 ,3.26 ,480 ,-,16.71 ,-,0.43 ,19.7 ,0.07 ,0.06 ,1.40 ,0.84 ,0.11 ,,7.8 ,31.08 ,""
2015/1/1 17:00,-1669 ,-1983 ,DS,DS,23.1 ,18.7 ,21.3 ,18.8 ,0.20 ,18.6 ,21.5 ,13.4 ,20.8 ,20.8 ,21.6 ,20.2 ,20.7 ,19.2 ,21.5 ,21.7 ,20.6 ,14.8 ,19.2 ,179.7 ,19.3 ,19.5 ,20.3 ,3.26 ,480 ,-,16.71 ,-,0.43 ,20.9 ,0.07 ,0.06 ,1.40 ,0.84 ,0.11 ,,7.7 ,30.85 ,""
2015/1/1 23:00,-1711 ,-1996 ,DS,DS,23.0 ,18.7 ,21.3 ,18.8 ,0.19 ,18.6 ,21.4 ,13.3 ,20.8 ,20.8 ,21.5 ,20.2 ,20.7 ,19.1 ,21.4 ,21.7 ,20.5 ,14.9 ,19.1 ,179.9 ,19.2 ,19.5 ,20.2 ,3.13 ,480 ,-,16.71 ,-,0.43 ,21.0 ,0.07 ,0.06 ,1.40 ,0.84 ,0.11 ,,7.6 ,30.60 ,""
2015/1/2 5:00,-1746 ,-2006 ,DS,DS,23.0 ,18.7 ,21.2 ,18.8 ,0.18 ,18.6 ,21.4 ,13.2 ,20.8 ,20.8 ,21.5 ,20.1 ,20.6 ,19.2 ,21.4 ,21.7 ,20.5 ,14.8 ,19.1 ,180.1 ,19.2 ,19.4 ,20.0 ,3.02 ,481 ,-,16.73 ,-,0.43 ,20.8 ,0.06 ,0.05 ,1.39 ,0.84 ,0.11 ,,7.3 ,30.31 ,""
2015/1/2 11:00,-1754 ,-2002 ,DS,DS,22.9 ,18.6 ,21.1 ,18.7 ,0.19 ,18.5 ,21.3 ,13.1 ,20.7 ,20.7 ,21.4 ,20.1 ,20.6 ,19.1 ,21.3 ,21.6 ,20.4 ,14.7 ,19.0 ,180.2 ,19.2 ,19.4 ,19.9 ,3.05 ,481 ,-,16.73 ,-,0.43 ,20.5 ,0.07 ,0.06 ,1.40 ,0.84 ,0.11 ,,7.0 ,30.05 ,""
2015/1/2 17:00,-1748 ,-2009 ,DS,DS,22.9 ,18.5 ,21.1 ,18.7 ,0.19 ,18.5 ,21.3 ,13.2 ,20.7 ,20.7 ,21.4 ,20.0 ,20.6 ,19.1 ,21.3 ,21.6 ,20.4 ,14.7 ,19.0 ,180.2 ,19.2 ,19.4 ,19.8 ,2.99 ,481 ,-,16.73 ,-,0.43 ,21.2 ,0.07 ,0.06 ,1.39 ,0.84 ,0.11 ,,7.0 ,29.86 ,""
2015/1/2 23:00,-1736 ,-1998 ,DS,DS,22.9 ,18.5 ,21.0 ,18.6 ,0.19 ,18.4 ,21.3 ,13.1 ,20.6 ,20.6 ,21.3 ,19.9 ,20.5 ,19.1 ,21.3 ,21.5 ,20.3 ,14.7 ,18.9 ,180.1 ,19.1 ,19.4 ,19.7 ,2.89 ,481 ,-,16.73 ,-,0.43 ,20.7 ,0.07 ,0.06 ,1.40 ,0.84 ,0.11 ,,6.9 ,29.72 ,""
2015/1/3 5:00,-1761 ,-2013 ,DS,DS,22.8 ,18.5 ,21.0 ,18.6 ,0.18 ,18.4 ,21.2 ,13.0 ,20.6 ,20.6 ,21.3 ,19.9 ,20.4 ,19.1 ,21.2 ,21.5 ,20.3 ,14.6 ,18.8 ,180.3 ,19.1 ,19.4 ,19.6 ,2.86 ,481 ,-,16.73 ,-,0.43 ,20.5 ,0.07 ,0.06 ,1.39 ,0.84 ,0.11 ,,6.8 ,29.50 ,""
2015/1/3 11:00,-1780 ,-2013 ,DS,DS,22.8 ,18.4 ,21.0 ,18.5 ,0.19 ,18.3 ,21.2 ,13.0 ,20.5 ,20.6 ,21.3 ,19.8 ,20.4 ,19.0 ,21.2 ,21.5 ,20.3 ,14.6 ,18.8 ,180.4 ,19.1 ,19.3 ,19.5 ,2.76 ,481 ,-,16.73 ,-,0.43 ,20.3 ,0.07 ,0.06 ,1.38 ,0.84 ,0.11 ,,6.7 ,29.29 ,""
2015/1/3 17:00,-1794 ,-2026 ,DS,DS,22.7 ,18.4 ,20.9 ,18.5 ,0.19 ,18.3 ,21.1 ,13.0 ,20.4 ,20.5 ,21.2 ,19.8 ,20.3 ,18.9 ,21.1 ,21.4 ,20.4 ,14.5 ,18.8 ,180.5 ,19.1 ,19.3 ,19.4 ,4.61 ,480 ,-,16.71 ,-,0.43 ,20.6 ,0.07 ,0.06 ,1.38 ,0.84 ,0.11 ,,6.9 ,29.11 ,""
2015/1/3 23:00,-1813 ,-2025 ,DS,DS,22.7 ,18.3 ,20.9 ,18.4 ,0.19 ,18.2 ,21.1 ,12.9 ,20.4 ,20.5 ,21.2 ,19.7 ,20.3 ,18.9 ,21.1 ,21.4 ,20.2 ,14.5 ,18.8 ,180.6 ,19.1 ,19.3 ,19.4 ,4.61 ,480 ,-,16.71 ,-,0.43 ,21.0 ,0.07 ,0.06 ,1.38 ,0.84 ,0.11 ,,6.8 ,28.91 ,""
2015/1/4 5:00,-1796 ,-2019 ,DS,DS,22.6 ,18.3 ,20.9 ,18.3 ,0.19 ,18.2 ,21.1 ,12.9 ,20.3 ,20.4 ,21.1 ,19.7 ,20.2 ,18.9 ,21.1 ,21.3 ,20.2 ,14.5 ,18.7 ,180.5 ,19.0 ,19.2 ,19.3 ,4.45 ,481 ,-,16.73 ,-,0.43 ,20.4 ,0.07 ,0.06 ,1.38 ,0.84 ,0.11 ,,6.6 ,28.73 ,""
2015/1/4 11:00,-1769 ,-2008 ,DS,DS,22.6 ,18.2 ,20.8 ,18.3 ,0.19 ,18.1 ,21.0 ,12.9 ,20.2 ,20.4 ,21.0 ,19.6 ,20.2 ,18.8 ,21.0 ,21.3 ,20.1 ,14.4 ,18.7 ,180.4 ,19.0 ,19.2 ,19.4 ,4.45 ,480 ,-,16.71 ,-,0.43 ,20.4 ,0.07 ,0.06 ,1.38 ,0.84 ,0.11 ,,6.9 ,28.61 ,""
2015/1/4 17:00,-1761 ,-2019 ,DS,DS,22.5 ,18.2 ,20.7 ,18.3 ,0.20 ,18.1 ,21.0 ,13.0 ,20.2 ,20.4 ,21.0 ,19.6 ,20.1 ,18.8 ,21.0 ,21.3 ,20.1 ,14.5 ,18.7 ,180.4 ,19.0 ,19.2 ,19.6 ,4.43 ,480 ,-,16.71 ,-,0.43 ,20.3 ,0.08 ,0.06 ,1.38 ,0.84 ,0.11 ,,7.1 ,28.55 ,""
2015/1/4 23:00,-1778 ,-2021 ,DS,DS,22.4 ,18.2 ,20.7 ,18.3 ,0.20 ,18.1 ,20.9 ,13.0 ,20.2 ,20.3 ,21.0 ,19.5 ,20.1 ,18.8 ,20.9 ,21.2 ,20.0 ,14.4 ,18.7 ,180.5 ,18.9 ,19.2 ,19.6 ,4.38 ,480 ,-,16.71 ,-,0.43 ,20.5 ,0.07 ,0.06 ,1.38 ,0.84 ,0.11 ,,7.1 ,28.46 ,""
2015/1/5 5:00,-1806 ,-2024 ,DS,DS,22.4 ,18.1 ,20.7 ,18.2 ,0.20 ,18.1 ,20.9 ,12.9 ,20.2 ,20.3 ,20.9 ,19.5 ,20.1 ,18.7 ,20.9 ,21.1 ,20.0 ,14.4 ,18.6 ,180.6 ,18.9 ,19.2 ,19.6 ,4.41 ,480 ,-,16.71 ,-,0.43 ,20.3 ,0.08 ,0.07 ,1.38 ,0.84 ,0.11 ,,7.1 ,28.36 ,""
2015/1/5 11:00,-1825 ,-2021 ,DS,DS,22.3 ,18.1 ,20.6 ,18.2 ,0.20 ,18.1 ,20.9 ,12.9 ,20.1 ,20.3 ,20.9 ,19.5 ,20.0 ,18.7 ,20.9 ,21.1 ,20.0 ,14.4 ,18.6 ,180.8 ,18.9 ,19.2 ,19.7 ,4.35 ,480 ,-,16.71 ,-,0.43 ,20.5 ,0.08 ,0.07 ,1.38 ,0.84 ,0.11 ,,7.2 ,28.22 ,""
2015/1/5 17:00,-1838 ,-2036 ,DS,DS,22.3 ,18.1 ,20.6 ,18.1 ,0.19 ,18.1 ,20.8 ,13.0 ,20.1 ,20.2 ,20.9 ,19.4 ,20.0 ,18.7 ,20.8 ,21.1 ,19.9 ,14.3 ,18.6 ,181.0 ,18.9 ,19.1 ,19.9 ,4.35 ,480 ,-,16.71 ,-,0.43 ,20.6 ,0.08 ,0.07 ,1.38 ,0.84 ,0.11 ,,7.5 ,28.18 ,""
2015/1/5 23:00,-1822 ,-2021 ,DS,DS,22.3 ,18.1 ,20.6 ,18.1 ,0.20 ,18.0 ,20.8 ,12.9 ,20.1 ,20.2 ,20.9 ,19.4 ,20.0 ,18.8 ,20.8 ,21.1 ,19.9 ,14.3 ,18.5 ,180.9 ,18.9 ,19.1 ,20.0 ,4.22 ,480 ,-,16.71 ,-,0.43 ,20.7 ,0.07 ,0.07 ,1.38 ,0.84 ,0.11 ,,7.4 ,28.09 ,""
2015/1/6 5:00,-1743 ,-2007 ,DS,DS,22.2 ,18.0 ,20.5 ,18.1 ,0.20 ,18.0 ,20.7 ,12.9 ,20.1 ,20.1 ,20.8 ,19.3 ,19.9 ,18.6 ,20.7 ,21.0 ,19.9 ,14.3 ,18.5 ,180.4 ,18.9 ,19.1 ,20.0 ,4.25 ,480 ,-,16.71 ,-,0.43 ,20.5 ,0.07 ,0.07 ,1.38 ,0.84 ,0.11 ,,7.6 ,28.01 ,""
2015/1/6 11:00,-1632 ,-1970 ,DS,DS,22.1 ,18.0 ,20.5 ,18.1 ,0.20 ,18.0 ,20.7 ,13.0 ,20.0 ,20.1 ,20.8 ,19.3 ,19.9 ,18.6 ,20.7 ,21.0 ,20.0 ,14.3 ,18.4 ,179.8 ,18.8 ,19.1 ,20.2 ,4.25 ,480 ,-,16.71 ,-,0.43 ,20.5 ,0.06 ,0.06 ,1.38 ,0.84 ,0.11 ,,8.1 ,28.02 ,""
2015/1/6 17:00,-1561 ,-1905 ,DS,DS,22.0 ,17.9 ,20.4 ,18.1 ,0.19 ,17.9 ,20.6 ,13.1 ,19.9 ,20.2 ,20.6 ,19.2 ,19.9 ,18.6 ,20.7 ,20.9 ,19.9 ,14.3 ,18.4 ,179.3 ,18.8 ,19.1 ,20.5 ,4.12 ,480 ,-,16.71 ,-,0.43 ,20.3 ,0.06 ,0.06 ,1.38 ,0.84 ,0.11 ,,8.6 ,28.10 ,""
2015/1/6 23:00,-1613 ,-1951 ,DS,DS,22.0 ,17.9 ,20.4 ,18.1 ,0.20 ,17.9 ,20.6 ,13.1 ,19.9 ,20.1 ,20.6 ,19.2 ,19.8 ,18.5 ,20.6 ,20.9 ,19.8 ,14.2 ,18.4 ,179.5 ,18.8 ,19.1 ,20.5 ,4.15 ,480 ,-,16.71 ,-,0.43 ,20.8 ,0.07 ,0.06 ,1.38 ,0.84 ,0.11 ,,8.6 ,28.05 ,""
2015/1/7 5:00,-1647 ,-1979 ,DS,DS,22.0 ,17.9 ,20.4 ,18.1 ,0.20 ,17.9 ,20.6 ,12.9 ,19.9 ,20.1 ,20.6 ,19.3 ,19.8 ,18.6 ,20.6 ,20.9 ,19.8 ,14.3 ,18.4 ,179.7 ,18.7 ,19.0 ,20.6 ,4.12 ,480 ,-,16.71 ,-,0.43 ,20.7 ,0.07 ,0.07 ,1.38 ,0.84 ,0.11 ,,8.4 ,27.83 ,""
2015/1/7 11:00,-1651 ,-1987 ,DS,DS,21.9 ,17.8 ,20.4 ,17.8 ,0.20 ,17.8 ,20.6 ,12.8 ,19.9 ,20.0 ,20.6 ,19.2 ,19.8 ,18.4 ,20.6 ,20.9 ,19.7 ,14.1 ,18.3 ,179.7 ,18.7 ,19.0 ,20.5 ,3.99 ,480 ,-,16.71 ,-,0.43 ,20.7 ,0.07 ,0.07 ,1.38 ,0.84 ,0.11 ,,8.2 ,27.61 ,""
2015/1/7 17:00,-1673 ,-1998 ,DS,DS,21.9 ,17.8 ,20.3 ,17.8 ,0.20 ,17.8 ,20.5 ,12.8 ,19.8 ,20.0 ,20.6 ,19.2 ,19.7 ,18.4 ,20.5 ,20.8 ,19.7 ,14.1 ,18.3 ,179.8 ,18.7 ,19.0 ,20.5 ,3.88 ,480 ,-,16.71 ,-,0.43 ,20.4 ,0.07 ,0.07 ,1.38 ,0.84 ,0.11 ,,8.1 ,27.44 ,""
2015/1/7 23:00,-1669 ,-1987 ,DS,DS,21.9 ,17.7 ,20.3 ,17.8 ,0.20 ,17.8 ,20.5 ,12.7 ,19.8 ,20.0 ,20.5 ,19.2 ,19.7 ,18.3 ,20.5 ,20.8 ,19.6 ,14.0 ,18.3 ,179.8 ,18.7 ,19.0 ,20.3 ,3.75 ,480 ,-,16.71 ,-,0.43 ,20.1 ,0.07 ,0.07 ,1.38 ,0.84 ,0.11 ,,8.0 ,27.20 ,""
2015/1/8 5:00,-1700 ,-2002 ,DS,DS,21.9 ,17.8 ,20.3 ,17.7 ,0.19 ,17.9 ,20.5 ,12.7 ,19.8 ,19.9 ,20.5 ,19.2 ,19.7 ,18.5 ,20.5 ,20.7 ,19.7 ,14.1 ,18.3 ,180.0 ,18.7 ,19.0 ,20.3 ,3.78 ,480 ,-,16.71 ,-,0.43 ,20.2 ,0.07 ,0.08 ,1.38 ,0.84 ,0.11 ,,7.8 ,26.97 ,""
2015/1/8 11:00,-1711 ,-2002 ,DS,DS,21.8 ,17.6 ,20.2 ,17.5 ,0.19 ,17.7 ,20.4 ,12.7 ,19.7 ,19.8 ,20.5 ,19.1 ,19.7 ,18.3 ,20.4 ,20.7 ,19.6 ,14.0 ,18.4 ,180.0 ,18.7 ,18.9 ,20.2 ,3.62 ,500 ,-,17.00 ,-,0.45 ,20.7 ,0.07 ,0.08 ,1.38 ,0.84 ,0.11 ,,7.7 ,26.76 ,""
2015/1/8 17:00,-1727 ,-2010 ,DS,DS,21.8 ,17.6 ,20.2 ,17.6 ,0.21 ,17.7 ,20.4 ,12.8 ,19.7 ,19.8 ,20.4 ,19.1 ,19.6 ,18.3 ,20.4 ,20.7 ,19.5 ,14.0 ,18.2 ,180.1 ,18.7 ,18.9 ,20.3 ,3.52 ,492 ,-,16.88 ,-,0.45 ,20.5 ,0.07 ,0.08 ,1.38 ,0.84 ,0.11 ,,7.9 ,26.62 ,""
2015/1/8 23:00,-1731 ,-2012 ,DS,DS,21.7 ,17.6 ,20.2 ,17.6 ,0.20 ,17.7 ,20.3 ,12.7 ,19.7 ,19.8 ,20.4 ,19.0 ,19.6 ,18.4 ,20.4 ,20.7 ,19.5 ,14.0 ,18.2 ,180.2 ,18.6 ,18.9 ,20.3 ,3.52 ,492 ,-,16.88 ,-,0.45 ,20.3 ,0.07 ,0.08 ,1.38 ,0.84 ,0.11 ,,7.8 ,26.48 ,""
2015/1/9 5:00,-1738 ,-2017 ,DS,DS,21.7 ,17.6 ,20.2 ,17.6 ,0.19 ,17.8 ,20.3 ,12.6 ,19.8 ,19.8 ,20.4 ,19.1 ,19.6 ,18.3 ,20.4 ,20.8 ,19.5 ,14.0 ,18.2 ,180.2 ,18.6 ,18.9 ,20.2 ,3.44 ,492 ,-,16.88 ,-,0.44 ,20.3 ,0.07 ,0.07 ,1.38 ,0.84 ,0.11 ,,7.7 ,26.25 ,""
2015/1/9 11:00,-1742 ,-2009 ,DS,DS,21.7 ,17.5 ,20.1 ,17.5 ,0.21 ,17.7 ,20.3 ,12.6 ,19.7 ,19.8 ,20.4 ,19.0 ,19.6 ,18.3 ,20.3 ,20.8 ,19.4 ,13.9 ,18.1 ,180.2 ,18.6 ,18.9 ,20.3 ,3.36 ,492 ,-,16.88 ,-,0.45 ,20.6 ,0.07 ,0.07 ,1.38 ,0.84 ,0.11 ,,7.6 ,26.03 ,""
2015/1/9 17:00,-1740 ,-2016 ,DS,DS,21.7 ,17.5 ,20.1 ,17.5 ,0.21 ,17.7 ,20.3 ,12.5 ,19.6 ,19.7 ,20.3 ,19.0 ,19.6 ,18.3 ,20.3 ,20.7 ,19.4 ,13.9 ,18.1 ,180.3 ,18.6 ,18.8 ,20.2 ,3.39 ,492 ,-,16.88 ,-,0.45 ,20.7 ,0.07 ,0.08 ,1.38 ,0.84 ,0.11 ,,7.8 ,25.86 ,""
2015/1/9 23:00,-1732 ,-2010 ,DS,DS,21.6 ,17.5 ,20.1 ,17.5 ,0.20 ,17.7 ,20.2 ,12.6 ,19.6 ,19.7 ,20.3 ,19.0 ,19.6 ,18.3 ,20.3 ,20.7 ,19.4 ,13.9 ,18.1 ,180.2 ,18.6 ,18.8 ,20.2 ,3.26 ,492 ,-,16.88 ,-,0.45 ,20.8 ,0.07 ,0.07 ,1.38 ,0.84 ,0.11 ,,7.7 ,25.76 ,""
2015/1/10 5:00,-1728 ,-2004 ,DS,DS,21.7 ,17.6 ,20.1 ,17.5 ,0.19 ,17.7 ,20.2 ,12.6 ,19.8 ,19.7 ,20.3 ,18.9 ,19.5 ,18.3 ,20.3 ,20.6 ,19.4 ,14.0 ,18.2 ,180.2 ,18.6 ,18.8 ,20.2 ,3.29 ,492 ,-,16.88 ,-,0.45 ,20.4 ,0.07 ,0.07 ,1.38 ,0.84 ,0.11 ,,7.6 ,25.54 ,""
2015/1/10 11:00,-1728 ,-2007 ,DS,DS,21.6 ,17.5 ,20.0 ,17.5 ,0.21 ,17.7 ,20.2 ,12.5 ,19.6 ,19.7 ,20.2 ,18.9 ,19.5 ,18.1 ,20.2 ,20.5 ,19.4 ,14.0 ,18.1 ,180.2 ,18.5 ,18.8 ,20.2 ,3.13 ,492 ,-,16.88 ,-,0.45 ,20.6 ,0.07 ,0.07 ,1.38 ,0.84 ,0.11 ,,7.5 ,25.35 ,""
2015/1/10 17:00,-1732 ,-2014 ,DS,DS,21.6 ,17.5 ,20.0 ,17.5 ,0.19 ,17.7 ,20.2 ,12.5 ,19.6 ,19.7 ,20.2 ,18.9 ,19.5 ,18.3 ,20.2 ,20.5 ,19.4 ,14.0 ,18.1 ,180.2 ,18.5 ,18.7 ,20.3 ,3.26 ,492 ,-,16.88 ,-,0.45 ,20.8 ,0.07 ,0.07 ,1.38 ,0.84 ,0.11 ,,7.6 ,25.21 ,""
2015/1/10 23:00,-1754 ,-2020 ,DS,DS,21.5 ,17.5 ,20.0 ,17.4 ,0.19 ,17.8 ,20.2 ,12.5 ,19.7 ,19.6 ,20.2 ,18.9 ,19.5 ,18.3 ,20.2 ,20.5 ,19.4 ,13.9 ,18.1 ,180.4 ,18.5 ,18.7 ,20.2 ,3.02 ,492 ,-,16.88 ,-,0.45 ,20.7 ,0.06 ,0.06 ,1.38 ,0.84 ,0.11 ,,7.5 ,25.03 ,""
2015/1/11 5:00,-1751 ,-2017 ,DS,DS,21.5 ,17.5 ,20.0 ,17.4 ,0.18 ,17.7 ,20.2 ,12.5 ,19.7 ,19.6 ,20.2 ,18.9 ,19.5 ,18.3 ,20.2 ,20.4 ,19.3 ,13.9 ,18.1 ,180.4 ,18.5 ,18.7 ,20.1 ,3.10 ,492 ,-,16.88 ,-,0.45 ,20.6 ,0.06 ,0.06 ,1.38 ,0.84 ,0.11 ,,7.3 ,24.86 ,""
2015/1/11 11:00,-1759 ,-2010 ,DS,DS,21.5 ,17.5 ,20.0 ,17.4 ,0.19 ,17.8 ,20.1 ,12.5 ,19.6 ,19.6 ,20.2 ,18.9 ,19.5 ,18.2 ,20.2 ,20.5 ,19.3 ,13.9 ,18.1 ,180.4 ,18.4 ,18.7 ,20.1 ,3.02 ,492 ,-,16.88 ,-,0.45 ,20.5 ,0.07 ,0.07 ,1.38 ,0.84 ,0.11 ,,7.3 ,24.65 ,""
2015/1/11 17:00,-1732 ,-2011 ,DS,DS,21.5 ,17.5 ,20.0 ,17.4 ,0.19 ,17.8 ,20.1 ,12.4 ,19.7 ,19.6 ,20.1 ,19.0 ,19.5 ,18.3 ,20.2 ,20.4 ,19.3 ,13.9 ,18.1 ,180.3 ,18.4 ,18.7 ,20.2 ,2.94 ,492 ,-,16.88 ,-,0.45 ,20.8 ,0.07 ,0.07 ,1.38 ,0.84 ,0.11 ,,7.5 ,24.55 ,""
2015/1/11 23:00,-1743 ,-2015 ,DS,DS,21.5 ,17.5 ,20.0 ,17.4 ,0.18 ,17.8 ,20.1 ,12.4 ,19.7 ,19.6 ,20.2 ,19.0 ,19.6 ,18.4 ,20.2 ,20.4 ,19.4 ,13.9 ,18.1 ,180.3 ,18.4 ,18.7 ,20.1 ,2.89 ,492 ,-,16.88 ,-,0.45 ,21.2 ,0.07 ,0.07 ,1.38 ,0.84 ,0.11 ,,7.3 ,24.42 ,""
2015/1/12 5:00,-1774 ,-2021 ,DS,DS,21.5 ,17.4 ,20.0 ,17.4 ,0.18 ,17.8 ,20.1 ,12.5 ,19.7 ,19.6 ,20.1 ,19.0 ,19.6 ,18.4 ,20.2 ,20.4 ,19.3 ,13.9 ,18.1 ,180.5 ,18.4 ,18.6 ,20.0 ,2.82 ,492 ,-,16.88 ,-,0.45 ,21.2 ,0.06 ,0.07 ,1.38 ,0.84 ,0.11 ,,7.1 ,24.24 ,""
2015/1/12 11:00,-1789 ,-2017 ,DS,DS,21.4 ,17.3 ,19.9 ,17.3 ,0.19 ,17.7 ,20.0 ,12.3 ,19.7 ,19.5 ,20.1 ,18.9 ,19.5 ,18.3 ,20.1 ,20.3 ,19.2 ,13.8 ,18.0 ,180.5 ,18.4 ,18.6 ,19.9 ,2.79 ,492 ,-,16.88 ,-,0.45 ,21.2 ,0.07 ,0.07 ,1.38 ,0.84 ,0.11 ,,7.0 ,24.09 ,""
2015/1/12 17:00,-1825 ,-2035 ,DS,DS,21.4 ,17.3 ,19.9 ,17.3 ,0.20 ,17.7 ,20.4 ,12.3 ,19.6 ,19.5 ,20.1 ,18.9 ,19.5 ,18.4 ,20.1 ,20.4 ,19.2 ,13.8 ,18.0 ,180.8 ,18.4 ,18.6 ,19.9 ,2.66 ,492 ,-,16.88 ,-,0.44 ,21.1 ,0.08 ,0.08 ,1.38 ,0.84 ,0.11 ,,7.3 ,23.92 ,""
2015/1/12 23:00,-1859 ,-2046 ,DS,DS,21.4 ,17.4 ,19.9 ,17.3 ,0.19 ,17.8 ,20.0 ,12.3 ,19.7 ,19.5 ,20.1 ,19.0 ,19.6 ,18.4 ,20.1 ,20.4 ,19.2 ,13.9 ,18.1 ,181.0 ,18.3 ,18.6 ,19.9 ,2.63 ,492 ,-,16.88 ,-,0.45 ,21.1 ,0.08 ,0.08 ,1.38 ,0.84 ,0.11 ,,7.1 ,23.71 ,""
2015/1/13 5:00,-1893 ,-2062 ,DS,DS,21.5 ,17.4 ,19.9 ,17.3 ,0.18 ,17.7 ,20.1 ,12.3 ,19.7 ,19.5 ,20.1 ,19.0 ,19.5 ,18.4 ,20.1 ,20.4 ,19.2 ,13.9 ,18.1 ,181.2 ,18.3 ,18.6 ,19.8 ,2.63 ,492 ,-,16.88 ,-,0.45 ,20.8 ,0.07 ,0.07 ,1.38 ,0.84 ,0.11 ,,7.0 ,23.50 ,""
2015/1/13 11:00,-1906 ,-2064 ,DS,DS,21.3 ,17.1 ,19.8 ,17.2 ,0.20 ,17.6 ,20.0 ,12.2 ,19.6 ,19.4 ,20.1 ,18.9 ,19.5 ,18.2 ,20.1 ,20.3 ,19.0 ,13.8 ,18.0 ,181.3 ,18.3 ,18.5 ,19.9 ,2.53 ,492 ,-,16.88 ,-,0.45 ,20.1 ,0.08 ,0.08 ,1.38 ,0.84 ,0.11 ,,7.1 ,23.35 ,""
2015/1/13 17:00,-1907 ,-2071 ,DS,DS,21.3 ,17.2 ,19.7 ,17.2 ,0.20 ,17.7 ,20.0 ,12.3 ,19.6 ,19.3 ,20.0 ,18.8 ,19.4 ,18.1 ,20.0 ,20.3 ,19.1 ,13.9 ,18.1 ,181.4 ,18.3 ,18.5 ,20.0 ,4.59 ,492 ,-,16.88 ,-,0.45 ,20.6 ,0.09 ,0.08 ,1.38 ,0.84 ,0.11 ,,7.5 ,23.24 ,""
2015/1/13 23:00,-1920 ,-2075 ,DS,DS,21.3 ,17.3 ,19.8 ,17.1 ,0.20 ,17.7 ,20.0 ,12.3 ,19.6 ,19.4 ,20.0 ,18.8 ,19.5 ,18.2 ,20.0 ,20.3 ,19.1 ,13.9 ,18.1 ,181.4 ,18.2 ,18.5 ,20.0 ,4.64 ,492 ,-,16.88 ,-,0.45 ,20.7 ,0.09 ,0.08 ,1.38 ,0.84 ,0.11 ,,7.4 ,23.12 ,""
2015/1/14 5:00,-1921 ,-2075 ,DS,DS,21.3 ,17.3 ,19.8 ,17.1 ,0.18 ,17.7 ,20.0 ,12.2 ,19.6 ,19.4 ,20.0 ,18.8 ,19.4 ,18.3 ,20.0 ,20.2 ,19.1 ,13.8 ,18.1 ,181.4 ,18.2 ,18.5 ,20.0 ,4.75 ,492 ,-,16.88 ,-,0.45 ,20.5 ,0.08 ,0.07 ,1.38 ,0.84 ,0.10 ,,7.2 ,22.89 ,""
2015/1/14 11:00,-1900 ,-2067 ,DS,DS,21.2 ,17.1 ,19.7 ,17.0 ,0.20 ,17.6 ,19.9 ,12.1 ,19.5 ,19.3 ,19.9 ,18.7 ,19.4 ,18.1 ,20.0 ,20.3 ,19.0 ,13.8 ,18.0 ,181.3 ,18.2 ,18.5 ,20.0 ,5.04 ,492 ,-,16.88 ,-,0.45 ,20.6 ,0.08 ,0.07 ,1.38 ,0.84 ,0.11 ,,7.2 ,22.75 ,""
2015/1/14 17:00,-1886 ,-2060 ,DS,DS,21.1 ,17.2 ,19.6 ,17.0 ,0.19 ,17.6 ,19.9 ,12.3 ,19.4 ,19.3 ,19.9 ,18.7 ,19.4 ,18.2 ,20.0 ,20.2 ,19.1 ,13.8 ,18.0 ,181.4 ,18.2 ,18.5 ,20.2 ,5.14 ,492 ,-,16.88 ,-,0.45 ,20.1 ,0.08 ,0.07 ,1.38 ,0.84 ,0.11 ,,7.5 ,22.67 ,""
2015/1/14 23:00,-1844 ,-2026 ,DS,DS,21.2 ,17.3 ,19.7 ,17.0 ,0.20 ,17.7 ,20.0 ,12.3 ,19.5 ,19.3 ,19.9 ,18.7 ,19.4 ,18.2 ,20.0 ,20.2 ,19.1 ,13.8 ,18.0 ,181.1 ,18.2 ,18.4 ,20.3 ,5.14 ,492 ,-,16.88 ,-,0.45 ,20.2 ,0.08 ,0.07 ,1.38 ,0.84 ,0.10 ,,7.5 ,22.59 ,""
2015/1/15 5:00,-1822 ,-2010 ,DS,DS,21.1 ,17.2 ,19.7 ,17.1 ,0.20 ,17.7 ,19.9 ,12.2 ,19.5 ,19.3 ,19.9 ,18.8 ,19.4 ,18.3 ,19.9 ,20.2 ,19.1 ,13.8 ,18.0 ,181.0 ,18.2 ,18.4 ,20.4 ,5.27 ,492 ,-,16.88 ,-,0.45 ,20.3 ,0.08 ,0.07 ,1.38 ,0.84 ,0.11 ,,7.4 ,22.51 ,""
2015/1/15 11:00,-1786 ,-1988 ,DS,DS,21.1 ,17.3 ,19.7 ,17.0 ,0.19 ,17.6 ,19.9 ,12.2 ,19.5 ,19.3 ,19.9 ,18.8 ,19.4 ,18.3 ,19.9 ,20.2 ,19.2 ,13.8 ,18.0 ,180.8 ,18.2 ,18.4 ,20.5 ,5.24 ,492 ,-,16.88 ,-,0.45 ,20.3 ,0.08 ,0.07 ,1.38 ,0.84 ,0.10 ,,7.6 ,22.38 ,""
2015/1/15 17:00,-1708 ,-1969 ,DS,DS,21.1 ,17.2 ,19.7 ,17.1 ,0.19 ,17.6 ,19.9 ,12.3 ,19.6 ,19.3 ,19.9 ,18.8 ,19.4 ,18.3 ,19.9 ,20.1 ,19.3 ,13.5 ,18.0 ,180.2 ,18.1 ,18.4 ,20.5 ,5.30 ,492 ,-,16.88 ,-,0.45 ,20.4 ,0.07 ,0.06 ,1.38 ,0.84 ,0.10 ,,7.6 ,22.38 ,""
2015/1/15 23:00,-1686 ,-1966 ,DS,DS,21.1 ,17.3 ,19.7 ,17.0 ,0.18 ,17.6 ,19.9 ,12.3 ,19.5 ,19.3 ,19.8 ,18.8 ,19.4 ,18.4 ,19.9 ,20.2 ,19.3 ,13.5 ,18.0 ,180.0 ,18.1 ,18.4 ,20.3 ,5.84 ,492 ,-,16.88 ,-,0.45 ,20.6 ,0.05 ,0.04 ,1.38 ,0.84 ,0.10 ,,7.5 ,22.31 ,""
2015/1/16 5:00,-1722 ,-1991 ,DS,DS,21.1 ,17.2 ,19.7 ,17.0 ,0.19 ,17.6 ,19.9 ,12.3 ,19.6 ,19.3 ,19.8 ,18.8 ,19.4 ,18.3 ,19.9 ,20.1 ,19.2 ,13.4 ,18.0 ,180.2 ,18.1 ,18.4 ,20.3 ,5.87 ,492 ,-,16.88 ,-,0.45 ,21.0 ,0.07 ,0.06 ,1.38 ,0.84 ,0.11 ,,7.3 ,22.14 ,""
2015/1/16 11:00,-1767 ,-2016 ,DS,DS,21.1 ,17.2 ,19.6 ,17.0 ,0.20 ,17.6 ,19.8 ,12.2 ,19.6 ,19.3 ,19.8 ,18.8 ,19.4 ,18.3 ,19.8 ,20.2 ,19.2 ,13.4 ,18.0 ,180.5 ,18.1 ,18.3 ,20.3 ,5.74 ,492 ,-,16.88 ,-,0.45 ,20.6 ,0.08 ,0.07 ,1.38 ,0.83 ,0.11 ,,7.5 ,22.01 ,""
2015/1/16 17:00,-1759 ,-2016 ,DS,DS,21.1 ,17.2 ,19.7 ,17.0 ,0.20 ,17.5 ,19.8 ,12.3 ,19.6 ,19.3 ,19.8 ,18.8 ,19.4 ,18.3 ,19.9 ,20.1 ,19.2 ,13.4 ,18.0 ,180.5 ,18.1 ,18.3 ,20.5 ,5.74 ,492 ,-,16.88 ,-,0.45 ,20.8 ,0.08 ,0.07 ,1.38 ,0.83 ,0.11 ,,7.6 ,44.94 ,""
2015/1/16 23:00,-1728 ,-1991 ,DS,DS,21.1 ,17.2 ,19.7 ,17.0 ,0.20 ,17.6 ,19.8 ,12.2 ,19.5 ,19.3 ,19.8 ,18.8 ,19.4 ,18.5 ,19.8 ,20.1 ,19.0 ,13.3 ,18.0 ,180.3 ,18.1 ,18.3 ,20.5 ,5.71 ,492 ,-,16.88 ,-,0.45 ,20.6 ,0.07 ,0.07 ,1.38 ,0.83 ,0.10 ,,7.5 ,44.82 ,""
2015/1/17 5:00,-1626 ,-1949 ,DS,DS,21.0 ,17.2 ,19.7 ,17.0 ,0.20 ,17.6 ,19.8 ,12.3 ,19.5 ,19.3 ,19.8 ,18.7 ,19.3 ,18.1 ,19.8 ,20.1 ,19.0 ,13.4 ,17.9 ,179.6 ,18.0 ,18.2 ,20.6 ,5.79 ,492 ,-,16.88 ,-,0.45 ,20.4 ,0.07 ,0.06 ,1.38 ,0.83 ,0.11 ,,7.4 ,44.76 ,""
2015/1/17 11:00,-1631 ,-1961 ,DS,DS,21.0 ,17.2 ,19.7 ,17.0 ,0.21 ,17.6 ,19.8 ,12.3 ,19.5 ,19.3 ,19.7 ,18.8 ,19.3 ,18.5 ,19.8 ,20.1 ,19.1 ,13.4 ,17.9 ,179.7 ,18.0 ,18.2 ,20.6 ,5.97 ,492 ,-,16.88 ,-,0.45 ,20.5 ,0.07 ,0.06 ,1.38 ,0.83 ,0.10 ,,7.6 ,44.70 ,""
2015/1/17 17:00,-1668 ,-1988 ,DS,DS,21.0 ,17.2 ,19.6 ,17.0 ,0.19 ,17.5 ,19.8 ,12.2 ,19.5 ,19.2 ,19.7 ,18.8 ,19.3 ,18.4 ,19.8 ,20.0 ,19.0 ,13.4 ,17.9 ,179.9 ,18.0 ,18.2 ,20.6 ,5.87 ,492 ,-,16.88 ,-,0.45 ,20.5 ,0.07 ,0.06 ,1.38 ,0.83 ,0.11 ,,7.6 ,44.59 ,""
2015/1/17 23:00,-1732 ,-2008 ,DS,DS,21.1 ,17.2 ,19.6 ,17.0 ,0.18 ,17.5 ,19.8 ,12.1 ,19.5 ,19.2 ,19.7 ,18.8 ,19.3 ,18.2 ,19.8 ,20.1 ,19.0 ,13.4 ,17.9 ,180.2 ,18.0 ,18.2 ,20.4 ,5.81 ,492 ,-,16.88 ,-,0.45 ,20.4 ,0.07 ,0.06 ,1.38 ,0.83 ,0.11 ,,7.3 ,44.33 ,""
2015/1/18 5:00,-1754 ,-2007 ,DS,DS,21.0 ,17.2 ,19.5 ,17.0 ,0.18 ,17.5 ,19.8 ,12.0 ,19.5 ,19.2 ,19.7 ,18.7 ,19.3 ,18.4 ,19.8 ,20.1 ,18.9 ,13.3 ,17.8 ,180.2 ,17.9 ,18.2 ,20.2 ,5.81 ,492 ,-,16.88 ,-,0.45 ,20.9 ,0.06 ,0.05 ,1.38 ,0.83 ,0.11 ,,7.0 ,44.05 ,""
2015/1/18 11:00,-1758 ,-2007 ,DS,DS,21.0 ,17.2 ,19.5 ,16.9 ,0.19 ,17.5 ,19.7 ,11.9 ,19.5 ,19.2 ,19.7 ,18.7 ,19.3 ,18.3 ,19.7 ,20.1 ,18.9 ,13.3 ,17.8 ,180.3 ,17.9 ,18.2 ,20.1 ,5.74 ,492 ,-,16.88 ,-,0.45 ,20.4 ,0.07 ,0.06 ,1.38 ,0.83 ,0.10 ,,6.8 ,43.86 ,""
2015/1/18 17:00,-1779 ,-2019 ,DS,DS,21.0 ,17.1 ,19.5 ,16.9 ,0.20 ,17.5 ,19.7 ,11.9 ,19.4 ,19.1 ,19.7 ,18.7 ,19.2 ,18.4 ,19.7 ,20.1 ,18.9 ,13.3 ,17.8 ,180.5 ,17.9 ,18.1 ,20.2 ,5.61 ,492 ,-,16.88 ,-,0.45 ,20.8 ,0.08 ,0.07 ,1.38 ,0.83 ,0.11 ,,7.0 ,43.62 ,""
2015/1/18 23:00,-1782 ,-2010 ,DS,DS,21.0 ,17.1 ,19.5 ,17.0 ,0.19 ,17.5 ,19.7 ,12.0 ,19.5 ,19.1 ,19.7 ,18.7 ,19.3 ,18.4 ,19.7 ,20.0 ,18.9 ,13.3 ,17.8 ,180.5 ,17.9 ,18.2 ,20.2 ,5.58 ,492 ,-,16.88 ,-,0.45 ,20.6 ,0.07 ,0.06 ,1.38 ,0.83 ,0.10 ,,7.0 ,43.44 ,""
2015/1/19 5:00,-1733 ,-1999 ,DS,DS,20.9 ,17.1 ,19.5 ,17.0 ,0.18 ,17.5 ,19.7 ,11.9 ,19.4 ,19.1 ,19.7 ,18.7 ,19.3 ,18.3 ,19.7 ,20.0 ,19.0 ,13.3 ,17.7 ,180.1 ,17.9 ,18.1 ,20.2 ,5.61 ,492 ,-,16.88 ,-,0.45 ,21.0 ,0.07 ,0.06 ,1.38 ,0.83 ,0.11 ,,6.8 ,43.29 ,""
2015/1/19 11:00,-1694 ,-2001 ,DS,DS,20.9 ,17.0 ,19.5 ,16.9 ,0.20 ,17.5 ,19.6 ,11.9 ,19.4 ,19.1 ,19.7 ,18.7 ,19.3 ,18.3 ,19.7 ,20.0 ,18.9 ,13.3 ,17.7 ,179.9 ,17.8 ,18.1 ,20.2 ,5.51 ,492 ,-,16.88 ,-,0.45 ,21.0 ,0.07 ,0.06 ,1.38 ,0.83 ,0.10 ,,6.9 ,43.18 ,""
2015/1/19 17:00,-1708 ,-2006 ,DS,DS,20.9 ,17.0 ,19.5 ,16.9 ,0.21 ,17.5 ,19.6 ,11.9 ,19.4 ,19.1 ,19.7 ,18.7 ,19.2 ,18.2 ,19.7 ,20.0 ,18.9 ,13.3 ,17.7 ,180.1 ,17.8 ,18.1 ,20.3 ,5.51 ,499 ,-,16.98 ,-,0.45 ,21.0 ,0.08 ,0.07 ,1.38 ,0.83 ,0.11 ,,7.1 ,43.07 ,""
2015/1/19 23:00,-1748 ,-2012 ,DS,DS,20.9 ,17.1 ,19.5 ,16.9 ,0.21 ,17.5 ,19.6 ,11.9 ,19.4 ,19.1 ,19.6 ,18.7 ,19.2 ,18.3 ,19.7 ,20.0 ,18.8 ,13.2 ,17.7 ,180.3 ,17.8 ,18.1 ,20.3 ,5.53 ,499 ,-,16.98 ,-,0.45 ,20.6 ,0.08 ,0.07 ,1.38 ,0.83 ,0.11 ,,7.1 ,42.94 ,""
2015/1/20 5:00,-1773 ,-2018 ,DS,DS,20.9 ,17.1 ,19.5 ,17.0 ,0.18 ,17.5 ,19.6 ,11.9 ,19.3 ,19.1 ,19.6 ,18.6 ,19.2 ,18.3 ,19.7 ,20.0 ,18.8 ,13.2 ,17.7 ,180.4 ,17.8 ,18.1 ,20.3 ,5.37 ,499 ,-,16.98 ,-,0.45 ,20.5 ,0.08 ,0.06 ,1.38 ,0.83 ,0.11 ,,7.0 ,42.80 ,""
2015/1/20 11:00,-1815 ,-2032 ,DS,DS,20.8 ,16.9 ,19.4 ,16.8 ,0.18 ,17.4 ,19.6 ,11.8 ,19.5 ,19.0 ,19.6 ,18.5 ,19.1 ,18.1 ,19.7 ,20.0 ,18.7 ,13.2 ,17.6 ,180.6 ,17.8 ,18.0 ,20.2 ,5.58 ,499 ,-,16.98 ,-,0.45 ,20.4 ,0.09 ,0.07 ,1.38 ,0.83 ,0.10 ,,7.0 ,42.58 ,""
2015/1/20 17:00,-1854 ,-2050 ,DS,DS,20.8 ,16.9 ,19.4 ,16.7 ,0.19 ,17.3 ,19.6 ,11.8 ,19.3 ,19.0 ,19.6 ,18.5 ,19.1 ,18.2 ,19.6 ,20.1 ,18.7 ,13.2 ,17.6 ,180.9 ,17.7 ,18.0 ,20.3 ,5.24 ,499 ,-,16.98 ,-,0.45 ,20.1 ,0.09 ,0.08 ,1.38 ,0.83 ,0.11 ,,7.0 ,42.44 ,""
2015/1/20 23:00,-1904 ,-2075 ,DS,DS,20.8 ,17.0 ,19.4 ,16.8 ,0.19 ,17.4 ,19.6 ,11.7 ,19.2 ,19.0 ,19.6 ,18.4 ,19.1 ,18.1 ,19.6 ,20.0 ,18.6 ,13.1 ,17.6 ,181.2 ,17.7 ,18.0 ,20.2 ,5.24 ,498 ,-,16.97 ,-,0.45 ,20.6 ,0.09 ,0.07 ,1.38 ,0.83 ,0.10 ,,6.9 ,42.23 ,""
2015/1/21 5:00,-1917 ,-2080 ,DS,DS,20.8 ,16.9 ,19.4 ,16.8 ,0.17 ,17.4 ,19.6 ,11.7 ,19.1 ,19.0 ,19.6 ,18.3 ,19.0 ,18.2 ,19.6 ,20.0 ,18.6 ,13.3 ,17.6 ,181.3 ,17.7 ,18.0 ,20.1 ,5.11 ,498 ,-,16.97 ,-,0.45 ,20.9 ,0.08 ,0.07 ,1.38 ,0.83 ,0.11 ,,6.7 ,42.03 ,""
2015/1/21 11:00,-1917 ,-2078 ,DS,DS,20.8 ,16.9 ,19.4 ,16.7 ,0.19 ,17.4 ,19.6 ,11.7 ,19.0 ,19.0 ,19.5 ,18.3 ,19.0 ,18.6 ,19.6 ,20.0 ,18.6 ,13.2 ,17.6 ,181.3 ,17.7 ,17.9 ,20.1 ,5.08 ,500 ,-,17.00 ,-,0.45 ,20.5 ,0.08 ,0.07 ,1.38 ,0.83 ,0.10 ,,6.6 ,41.82 ,""
2015/1/21 17:00,-1886 ,-2061 ,DS,DS,20.8 ,16.8 ,19.4 ,17.2 ,0.19 ,17.3 ,19.5 ,11.7 ,19.1 ,19.0 ,19.5 ,18.3 ,19.0 ,18.1 ,19.6 ,20.0 ,18.6 ,13.2 ,17.7 ,181.1 ,17.7 ,17.9 ,20.2 ,5.04 ,500 ,-,17.00 ,-,0.45 ,20.8 ,0.09 ,0.07 ,1.38 ,0.83 ,0.11 ,,6.7 ,41.74 ,""
2015/1/21 23:00,-1863 ,-2045 ,DS,DS,20.8 ,16.9 ,19.4 ,16.7 ,0.19 ,17.4 ,19.6 ,11.8 ,19.1 ,19.0 ,19.5 ,18.3 ,19.0 ,18.1 ,19.6 ,20.0 ,18.6 ,13.2 ,17.7 ,181.0 ,17.7 ,17.9 ,20.2 ,5.11 ,500 ,-,17.00 ,-,0.45 ,20.7 ,0.08 ,0.07 ,1.38 ,0.83 ,0.10 ,,6.7 ,41.64 ,""
2015/1/22 5:00,-1820 ,-2011 ,DS,DS,20.7 ,16.8 ,19.4 ,16.6 ,0.19 ,17.3 ,19.6 ,11.7 ,19.1 ,19.0 ,19.5 ,18.3 ,19.0 ,18.1 ,19.7 ,19.9 ,18.6 ,13.2 ,17.6 ,180.7 ,17.7 ,17.9 ,20.1 ,5.21 ,500 ,-,17.00 ,-,0.45 ,20.4 ,0.08 ,0.06 ,1.38 ,0.83 ,0.11 ,,6.6 ,41.58 ,""
2015/1/22 11:00,-1765 ,-1989 ,DS,DS,20.7 ,16.8 ,19.3 ,16.6 ,0.20 ,17.3 ,19.7 ,11.8 ,19.0 ,18.9 ,19.4 ,18.3 ,18.9 ,18.1 ,19.5 ,19.9 ,18.6 ,13.3 ,17.5 ,180.4 ,17.6 ,17.9 ,20.1 ,5.11 ,500 ,-,17.00 ,-,0.45 ,20.7 ,0.08 ,0.06 ,1.38 ,0.83 ,0.11 ,,6.6 ,41.50 ,""
2015/1/22 17:00,-1695 ,-1973 ,DS,DS,20.7 ,16.8 ,19.3 ,16.6 ,0.19 ,17.3 ,19.5 ,11.8 ,19.0 ,18.9 ,19.4 ,18.3 ,18.9 ,18.1 ,19.5 ,19.9 ,18.7 ,13.3 ,17.5 ,180.0 ,17.6 ,17.9 ,20.1 ,5.24 ,500 ,-,17.00 ,-,0.45 ,20.7 ,0.07 ,0.06 ,1.38 ,0.83 ,0.10 ,,6.7 ,41.46 ,""
2015/1/22 23:00,-1614 ,-1955 ,DS,DS,20.6 ,16.8 ,19.3 ,16.6 ,0.19 ,17.3 ,19.4 ,11.9 ,19.1 ,18.9 ,19.4 ,18.3 ,18.9 ,18.1 ,19.5 ,19.9 ,18.7 ,13.2 ,17.5 ,179.5 ,17.6 ,17.9 ,20.1 ,5.21 ,500 ,-,17.00 ,-,0.45 ,21.0 ,0.07 ,0.06 ,1.38 ,0.83 ,0.11 ,,6.8 ,41.46 ,""